• En España
  • Lista de países
  • Para 7 días
  • Temperatura del agua
  • Mapa Satelital
  • El tiempo en el mapa
  • Informadores
  • user-avatar
    Iniciar sesión

    Tiempo cada hora Valbom

    Hoy, 21 Septiembre, Viernes

    Tiempo Temperatura Precipitaciones Viento Presión Humedad
    00:00 +19°C° 0 mm 1 mps 763 mmHg 89%
    01:00 +19°C° 0 mm 1 mps 763 mmHg 89%
    02:00 +19°C° 0 mm 1 mps 763 mmHg 90%
    03:00 +19°C° 0 mm 1 mps 763 mmHg 90%
    04:00 +19°C° 0 mm 1 mps 763 mmHg 90%
    05:00 +19°C° 0 mm 1 mps 763 mmHg 90%
    06:00 +21°C° 0 mm 1 mps 763 mmHg 80%
    07:00 +23°C° 0 mm 1 mps 763 mmHg 71%
    08:00 +25°C° 0 mm 1 mps 763 mmHg 62%
    09:00 +26°C° 0 mm 2 mps 763 mmHg 54%
    10:00 +28°C° 0 mm 2 mps 763 mmHg 47%
    11:00 +30°C° 0 mm 3 mps 763 mmHg 40%
    12:00 +30°C° 0 mm 3 mps 763 mmHg 40%
    13:00 +30°C° 0 mm 4 mps 762 mmHg 41%
    14:00 +30°C° 0 mm 4 mps 762 mmHg 41%
    15:00 +29°C° 0 mm 4 mps 762 mmHg 49%
    16:00 +27°C° 0 mm 4 mps 762 mmHg 57%
    17:00 +26°C° 0 mm 4 mps 762 mmHg 64%
    18:00 +25°C° 0 mm 3 mps 762 mmHg 71%
    19:00 +22°C° 0 mm 3 mps 763 mmHg 78%
    20:00 +21°C° 0 mm 3 mps 764 mmHg 84%
    21:00 +21°C° 0 mm 3 mps 764 mmHg 85%
    22:00 +21°C° 0 mm 3 mps 764 mmHg 85%
    23:00 +21°C° 0 mm 2 mps 764 mmHg 86%

    Mañana, 22 Septiembre, Sábado

    Tiempo Temperatura Precipitaciones Viento Presión Humedad
    00:00 +20°C° 0 mm 2 mps 763 mmHg 85%
    01:00 +20°C° 0 mm 2 mps 763 mmHg 85%
    02:00 +20°C° 0 mm 2 mps 763 mmHg 84%
    03:00 +20°C° 0 mm 2 mps 763 mmHg 84%
    04:00 +20°C° 0 mm 2 mps 764 mmHg 84%
    05:00 +20°C° 0 mm 2 mps 764 mmHg 83%
    06:00 +23°C° 0 mm 2 mps 764 mmHg 74%
    07:00 +25°C° 0 mm 2 mps 764 mmHg 65%
    08:00 +28°C° 0 mm 2 mps 764 mmHg 56%
    09:00 +30°C° 0 mm 2 mps 764 mmHg 49%
    10:00 +33°C° 0 mm 3 mps 764 mmHg 42%
    11:00 +35°C° 0 mm 3 mps 764 mmHg 35%
    12:00 +35°C° 0 mm 3 mps 764 mmHg 33%
    13:00 +35°C° 0 mm 4 mps 763 mmHg 32%
    14:00 +35°C° 0 mm 4 mps 763 mmHg 31%
    15:00 +34°C° 0 mm 4 mps 763 mmHg 37%
    16:00 +32°C° 0 mm 4 mps 763 mmHg 43%
    17:00 +29°C° 0 mm 4 mps 763 mmHg 49%
    18:00 +28°C° 0 mm 4 mps 763 mmHg 54%
    19:00 +27°C° 0 mm 4 mps 764 mmHg 58%
    20:00 +25°C° 0 mm 3 mps 764 mmHg 63%
    21:00 +25°C° 0 mm 3 mps 764 mmHg 63%
    22:00 +25°C° 0 mm 3 mps 764 mmHg 63%
    23:00 +24°C° 0 mm 3 mps 764 mmHg 63%

    Pasado mañana, 23 Septiembre, Domingo

    Tiempo Temperatura Precipitaciones Viento Presión Humedad
    00:00 +24°C° 0 mm 3 mps 764 mmHg 62%
    01:00 +24°C° 0 mm 3 mps 763 mmHg 62%
    02:00 +24°C° 0 mm 3 mps 763 mmHg 62%
    03:00 +24°C° 0 mm 3 mps 763 mmHg 62%
    04:00 +23°C° 0 mm 2 mps 763 mmHg 62%
    05:00 +23°C° 0 mm 2 mps 763 mmHg 62%
    06:00 +25°C° 0 mm 2 mps 764 mmHg 56%
    07:00 +27°C° 0 mm 2 mps 764 mmHg 51%
    08:00 +29°C° 0 mm 2 mps 764 mmHg 45%
    09:00 +31°C° 0 mm 3 mps 764 mmHg 41%
    10:00 +34°C° 0 mm 3 mps 764 mmHg 37%
    11:00 +35°C° 0 mm 4 mps 764 mmHg 33%
    12:00 +35°C° 0 mm 4 mps 764 mmHg 33%
    13:00 +35°C° 0 mm 5 mps 764 mmHg 33%
    14:00 +35°C° 0 mm 6 mps 763 mmHg 33%
    15:00 +33°C° 0 mm 5 mps 763 mmHg 39%
    16:00 +30°C° 0 mm 5 mps 763 mmHg 45%
    17:00 +28°C° 0 mm 5 mps 763 mmHg 52%
    18:00 +27°C° 0 mm 5 mps 764 mmHg 57%
    19:00 +26°C° 0 mm 4 mps 764 mmHg 62%
    20:00 +23°C° 0 mm 4 mps 765 mmHg 67%
    21:00 +23°C° 0 mm 4 mps 765 mmHg 66%
    22:00 +23°C° 0 mm 4 mps 765 mmHg 66%
    23:00 +23°C° 0 mm 4 mps 764 mmHg 66%

    24 Septiembre, Lunes

    Tiempo Temperatura Precipitaciones Viento Presión Humedad
    00:00 +22°C° 0 mm 4 mps 764 mmHg 67%
    01:00 +22°C° 0 mm 4 mps 764 mmHg 67%
    02:00 +22°C° 0 mm 4 mps 764 mmHg 68%
    03:00 +21°C° 0 mm 4 mps 764 mmHg 69%
    04:00 +21°C° 0 mm 4 mps 764 mmHg 70%
    05:00 +21°C° 0 mm 4 mps 764 mmHg 71%
    06:00 +23°C° 0 mm 4 mps 764 mmHg 65%
    07:00 +26°C° 0 mm 4 mps 764 mmHg 58%
    08:00 +28°C° 0 mm 3 mps 764 mmHg 52%
    09:00 +30°C° 0 mm 3 mps 764 mmHg 46%
    10:00 +33°C° 0 mm 3 mps 764 mmHg 40%
    11:00 +35°C° 0 mm 3 mps 763 mmHg 34%
    12:00 +36°C° 0 mm 4 mps 763 mmHg 33%
    13:00 +36°C° 0 mm 4 mps 762 mmHg 31%
    14:00 +36°C° 0 mm 4 mps 761 mmHg 30%
    15:00 +35°C° 0 mm 4 mps 761 mmHg 34%
    16:00 +33°C° 0 mm 3 mps 761 mmHg 38%
    17:00 +30°C° 0 mm 3 mps 761 mmHg 43%
    18:00 +29°C° 0 mm 3 mps 761 mmHg 45%
    19:00 +28°C° 0 mm 3 mps 761 mmHg 47%
    20:00 +27°C° 0 mm 2 mps 762 mmHg 49%
    21:00 +27°C° 0 mm 2 mps 762 mmHg 49%
    22:00 +26°C° 0 mm 2 mps 762 mmHg 49%
    23:00 +26°C° 0 mm 2 mps 761 mmHg 49%

    25 Septiembre, Martes

    Tiempo Temperatura Precipitaciones Viento Presión Humedad
    00:00 +26°C° 0 mm 2 mps 761 mmHg 51%
    01:00 +25°C° 0 mm 2 mps 761 mmHg 53%
    02:00 +25°C° 0 mm 2 mps 761 mmHg 55%
    03:00 +24°C° 0 mm 2 mps 761 mmHg 55%
    04:00 +24°C° 0 mm 2 mps 761 mmHg 54%
    05:00 +23°C° 0 mm 2 mps 761 mmHg 53%
    06:00 +24°C° 0 mm 2 mps 761 mmHg 48%
    07:00 +26°C° 0 mm 2 mps 761 mmHg 44%
    08:00 +27°C° 0 mm 2 mps 761 mmHg 39%
    09:00 +30°C° 0 mm 2 mps 761 mmHg 34%
    10:00 +34°C° 0 mm 2 mps 761 mmHg 30%
    11:00 +35°C° 0 mm 1 mps 761 mmHg 26%
    12:00 +37°C° 0 mm 2 mps 761 mmHg 25%
    13:00 +37°C° 0 mm 2 mps 760 mmHg 25%
    14:00 +38°C° 0 mm 2 mps 760 mmHg 24%
    15:00 +36°C° 0 mm 2 mps 760 mmHg 29%
    16:00 +34°C° 0 mm 2 mps 760 mmHg 34%
    17:00 +31°C° 0 mm 2 mps 760 mmHg 38%
    18:00 +29°C° 0 mm 2 mps 761 mmHg 42%
    19:00 +28°C° 0 mm 1 mps 761 mmHg 45%
    20:00 +26°C° 0 mm 1 mps 762 mmHg 48%
    21:00 +26°C° 0 mm 1 mps 762 mmHg 49%
    22:00 +26°C° 0 mm 1 mps 762 mmHg 49%
    23:00 +25°C° 0 mm 1 mps 762 mmHg 50%

    26 Septiembre, Miércoles

    Tiempo Temperatura Precipitaciones Viento Presión Humedad
    00:00 +25°C° 0 mm 1 mps 762 mmHg 50%
    01:00 +25°C° 0 mm 1 mps 762 mmHg 51%
    02:00 +23°C° 0 mm 0 mps 762 mmHg 51%
    03:00 +23°C° 0 mm 0 mps 762 mmHg 51%
    04:00 +24°C° 0 mm 1 mps 762 mmHg 52%
    05:00 +24°C° 0 mm 1 mps 763 mmHg 53%
    06:00 +26°C° 0 mm 1 mps 763 mmHg 48%
    07:00 +28°C° 0 mm 1 mps 763 mmHg 44%
    08:00 +30°C° 0 mm 1 mps 763 mmHg 39%
    09:00 +31°C° 0 mm 1 mps 763 mmHg 36%
    10:00 +34°C° 0 mm 2 mps 763 mmHg 33%
    11:00 +36°C° 0 mm 2 mps 763 mmHg 30%
    12:00 +36°C° 0 mm 2 mps 763 mmHg 30%
    13:00 +35°C° 0 mm 2 mps 763 mmHg 31%
    14:00 +35°C° 0 mm 2 mps 763 mmHg 31%
    15:00 +34°C° 0 mm 2 mps 763 mmHg 36%
    16:00 +31°C° 0 mm 2 mps 763 mmHg 40%
    17:00 +29°C° 0 mm 2 mps 763 mmHg 45%
    18:00 +28°C° 0 mm 2 mps 764 mmHg 48%
    19:00 +27°C° 0 mm 2 mps 764 mmHg 51%
    20:00 +26°C° 0 mm 2 mps 765 mmHg 53%
    21:00 +26°C° 0 mm 2 mps 765 mmHg 54%
    22:00 +25°C° 0 mm 2 mps 765 mmHg 54%
    23:00 +25°C° 0 mm 2 mps 765 mmHg 55%
    Mostrar más